"Period start","avg(HW err(1)/warn(2) (#))","avg(Visibility (m))","avg(Weather code (#))","avg(Precip intensity (mm/h))","min(HW err(1)/warn(2) (#))","max(HW err(1)/warn(2) (#))","std(HW err(1)/warn(2) (#))","med(HW err(1)/warn(2) (#))","min(Visibility (m))","max(Visibility (m))","std(Visibility (m))","med(Visibility (m))","min(Weather code (#))","max(Weather code (#))","std(Weather code (#))","med(Weather code (#))","min(Precip intensity (mm/h))","max(Precip intensity (mm/h))","std(Precip intensity (mm/h))","med(Precip intensity (mm/h))"
2016-10-04 00:00:00,2,10302,1,0.00,2,2,0,2,5375,21115,4767,8876,0,10,3,0,0.00,0.00,0.00,0.00
2016-10-04 00:10:00,2,9429,13,0.00,2,2,0,2,4974,16670,4047,8146,10,40,9,10,0.00,0.00,0.00,0.00
2016-10-04 00:20:00,2,4330,68,0.09,2,2,0,2,2402,9726,1996,3937,40,77,14,74,0.00,0.35,0.10,0.05
2016-10-04 00:30:00,2,5298,44,0.26,2,2,0,2,1826,11885,3064,4776,10,71,30,71,0.00,1.80,0.56,0.00
2016-10-04 00:40:00,2,2954,71,0.64,2,2,0,2,2245,4053,559,2870,71,71,0,71,0.25,1.30,0.34,0.50
2016-10-04 00:50:00,2,4897,72,0.08,2,2,0,2,4153,5825,534,4822,71,77,2,71,0.00,0.25,0.07,0.05
2016-10-04 01:00:00,2,4346,66,0.26,2,2,0,2,3008,7698,1369,3838,10,77,19,71,0.00,1.00,0.34,0.10
2016-10-04 01:10:00,2,6395,60,0.20,2,2,0,2,2417,9348,2302,6770,10,77,25,71,0.00,0.90,0.29,0.00
2016-10-04 01:20:00,2,4748,66,0.15,2,2,0,2,3061,7370,1171,4919,10,77,19,71,0.00,0.85,0.24,0.08
2016-10-04 01:30:00,2,7421,28,0.03,2,2,0,2,2843,16635,3617,6773,10,71,28,10,0.00,0.15,0.05,0.00
2016-10-04 01:40:00,2,5289,54,0.02,2,2,0,2,3395,7029,1124,5239,10,77,29,71,0.00,0.10,0.03,0.00
2016-10-04 01:50:00,2,4111,72,0.24,2,2,0,2,2340,8216,1623,3864,71,77,2,71,0.00,0.80,0.26,0.15
2016-10-04 02:00:00,2,5486,47,0.14,2,2,0,2,2472,7871,1786,6146,10,71,30,71,0.00,0.70,0.25,0.03
2016-10-04 02:10:00,2,3924,71,0.27,2,2,0,2,2704,4807,760,4158,71,71,0,71,0.00,0.85,0.28,0.17
2016-10-04 02:20:00,2,4432,73,0.09,2,2,0,2,3090,6102,1008,4448,71,77,3,71,0.00,0.65,0.19,0.03
2016-10-04 02:30:00,2,7678,22,0.00,2,2,0,2,6036,11146,1337,7418,10,71,24,10,0.00,0.00,0.00,0.00
2016-10-04 02:40:00,2,8064,28,0.01,2,2,0,2,5054,11205,2100,7925,10,71,28,10,0.00,0.05,0.02,0.00
2016-10-04 02:50:00,2,6832,76,0.03,2,2,0,2,5195,8851,1042,6606,71,77,2,77,0.00,0.05,0.03,0.03
2016-10-04 03:00:00,2,4641,69,0.05,2,2,0,2,2996,6565,1275,4542,41,77,14,77,0.00,0.10,0.04,0.05
2016-10-04 03:10:00,2,4614,75,0.04,2,2,0,2,3172,6514,980,4588,71,77,3,77,0.00,0.10,0.03,0.05
2016-10-04 03:20:00,2,5692,75,0.02,2,2,0,2,3579,9694,1908,5092,71,77,3,77,0.00,0.10,0.03,0.00
2016-10-04 03:30:00,2,5111,36,0.01,2,2,0,2,3074,9025,2247,3840,10,77,32,10,0.00,0.05,0.02,0.00
2016-10-04 03:40:00,2,7116,10,0.00,2,2,0,2,3247,13231,3324,5504,10,10,0,10,0.00,0.00,0.00,0.00
2016-10-04 03:50:00,2,7141,10,0.00,2,2,0,2,4015,10530,2139,6699,10,10,0,10,0.00,0.00,0.00,0.00
2016-10-04 04:00:00,2,4896,54,0.06,2,2,0,2,3350,8829,1529,4517,10,77,29,71,0.00,0.30,0.09,0.05
2016-10-04 04:10:00,2,5565,74,0.01,2,2,0,2,4014,7170,982,5117,71,77,3,74,0.00,0.05,0.02,0.00
2016-10-04 04:20:00,2,7791,17,0.00,2,2,0,2,3919,16048,3748,6362,10,77,20,10,0.00,0.00,0.00,0.00
2016-10-04 04:30:00,2,10762,8,0.00,2,2,0,2,5868,17171,3376,9950,0,10,4,10,0.00,0.00,0.00,0.00
2016-10-04 04:40:00,2,8418,7,0.00,2,2,0,2,6350,12196,1804,8003,0,10,5,10,0.00,0.00,0.00,0.00
2016-10-04 04:50:00,2,13085,9,0.00,2,2,0,2,7232,23072,4596,11494,0,10,3,10,0.00,0.00,0.00,0.00
2016-10-04 05:00:00,2,5499,35,0.04,2,2,0,2,2756,11280,2330,5030,0,77,32,40,0.00,0.20,0.07,0.00
2016-10-04 05:10:00,2,5789,42,0.06,2,2,0,2,2936,9130,2160,5656,10,77,32,40,0.00,0.25,0.08,0.03
2016-10-04 05:20:00,2,8292,75,0.01,2,2,0,2,5018,12354,2342,8014,71,77,3,77,0.00,0.05,0.02,0.00
2016-10-04 05:30:00,2,4489,74,0.18,2,2,0,2,3037,7621,1450,3964,71,77,3,74,0.00,0.75,0.22,0.08
2016-10-04 05:40:00,2,8126,65,0.09,2,2,0,2,4462,14611,3324,7172,10,71,18,71,0.00,0.55,0.16,0.03
2016-10-04 05:50:00,2,9094,61,0.06,2,2,0,2,3450,15305,4167,9360,10,77,26,71,0.00,0.25,0.09,0.00
2016-10-04 06:00:00,2,5604,65,0.14,2,2,0,2,2123,9102,1935,5802,10,71,18,71,0.00,0.90,0.28,0.00
2016-10-04 06:10:00,2,6526,76,0.07,2,2,0,2,4171,8472,1277,6708,71,77,2,77,0.00,0.20,0.07,0.05
2016-10-04 06:20:00,2,6430,58,0.18,2,2,0,2,2566,11069,2375,6260,0,77,29,71,0.00,1.20,0.36,0.03
2016-10-04 06:30:00,2,5424,73,0.32,2,2,0,2,2894,7993,1655,5786,71,77,3,71,0.00,0.95,0.35,0.17
2016-10-04 06:40:00,2,5546,71,0.32,2,2,0,2,3354,9004,1854,5306,71,71,0,71,0.00,1.05,0.35,0.15
2016-10-04 06:50:00,2,8217,74,0.04,2,2,0,2,5106,16520,3090,7636,71,77,3,74,0.00,0.10,0.04,0.05
2016-10-04 07:00:00,2,9495,72,0.24,2,2,0,2,4841,15865,3912,7944,71,77,2,71,0.00,1.45,0.43,0.08
2016-10-04 07:10:00,2,6822,71,0.45,2,2,0,2,2738,10412,2568,7016,71,71,0,71,0.05,1.10,0.40,0.30
2016-10-04 07:20:00,2,3014,71,1.74,2,2,0,2,1957,4124,810,2728,71,71,0,71,0.40,3.00,0.78,1.98
2016-10-04 07:30:00,2,6566,71,0.41,2,2,0,2,3531,10909,2474,6796,71,71,0,71,0.05,1.30,0.39,0.25
2016-10-04 07:40:00,2,5692,71,0.24,2,2,0,2,4375,7670,1011,5804,71,71,0,71,0.10,0.50,0.13,0.20
2016-10-04 07:50:00,2,10245,54,0.01,2,2,0,2,5951,17623,3658,9353,10,77,29,71,0.00,0.05,0.02,0.00
2016-10-04 08:00:00,2,4238,71,0.49,2,2,0,2,2484,6674,1359,4152,71,71,0,71,0.00,1.80,0.58,0.20
2016-10-04 08:10:00,2,2395,71,2.19,2,2,0,2,1501,3385,594,2310,71,71,0,71,0.70,3.50,0.85,2.45
2016-10-04 08:20:00,2,4467,71,0.58,2,2,0,2,2218,6787,1466,4402,71,71,0,71,0.05,2.45,0.85,0.12
2016-10-04 08:30:00,2,14102,54,0.04,2,2,0,2,3765,31748,7896,12396,10,77,29,71,0.00,0.35,0.10,0.00
2016-10-04 08:40:00,2,22680,16,0.01,2,2,0,2,7058,33869,9371,23372,0,71,28,0,0.00,0.10,0.03,0.00
2016-10-04 08:50:00,2,6154,71,0.33,2,2,0,2,3175,11756,2474,5567,71,71,0,71,0.00,1.55,0.43,0.20
2016-10-04 09:00:00,2,6820,71,0.26,2,2,0,2,3384,9634,1635,6824,71,71,0,71,0.05,0.90,0.27,0.15
2016-10-04 09:10:00,2,7531,71,0.24,2,2,0,2,3187,15571,3430,6568,71,71,0,71,0.00,1.00,0.27,0.17
2016-10-04 09:20:00,2,7641,71,0.78,2,2,0,2,1873,12519,3693,9006,71,71,0,71,0.00,3.90,1.26,0.05
2016-10-04 09:30:00,2,6391,71,0.28,2,2,0,2,4263,10471,2100,5748,71,71,0,71,0.00,0.90,0.26,0.30
2016-10-04 09:40:00,2,6924,71,0.14,2,2,0,2,4277,11989,2256,6052,71,71,0,71,0.00,0.50,0.14,0.10
2016-10-04 09:50:00,2,4864,71,0.56,2,2,0,2,2142,9164,2066,4387,71,71,0,71,0.00,2.75,0.78,0.30
2016-10-04 10:00:00,2,10213,71,0.07,2,2,0,2,4211,15432,2914,10548,71,71,0,71,0.00,0.45,0.12,0.05
2016-10-04 10:10:00,2,8471,74,0.13,2,2,0,2,3330,11883,2620,8476,71,77,3,77,0.00,0.70,0.21,0.05
2016-10-04 10:20:00,2,6885,72,0.21,2,2,0,2,2971,12290,2740,6995,71,77,2,71,0.00,0.70,0.22,0.15
2016-10-04 10:30:00,2,4787,71,0.38,2,2,0,2,2340,6667,1587,5196,71,71,0,71,0.00,1.55,0.43,0.25
2016-10-04 10:40:00,2,2065,71,2.38,2,2,0,2,1211,2744,540,2212,71,71,0,71,0.75,5.40,1.54,1.98
2016-10-04 10:50:00,2,1202,71,7.02,2,2,0,2,800,2346,462,1034,71,72,0,71,0.25,10.85,2.95,7.35
2016-10-04 11:00:00,2,2026,71,1.76,2,2,0,2,825,3011,566,2030,71,71,0,71,0.30,5.80,1.59,0.95
2016-10-04 11:10:00,2,1124,71,5.48,2,2,0,2,628,1646,330,1077,71,71,0,71,2.50,11.90,3.13,4.35
2016-10-04 11:20:00,2,1548,71,4.08,2,2,0,2,1052,2225,337,1495,71,71,0,71,2.35,5.60,0.96,4.08
2016-10-04 11:30:00,2,2062,71,2.49,2,2,0,2,1258,3406,599,2164,71,71,0,71,1.30,5.00,1.15,2.52
2016-10-04 11:40:00,2,4307,71,1.52,2,2,0,2,1119,7727,2304,4748,71,71,0,71,0.05,5.10,1.93,0.43
2016-10-04 11:50:00,2,3224,71,1.12,2,2,0,2,1719,4419,772,3402,71,71,0,71,0.30,2.55,0.75,0.80
2016-10-04 12:00:00,2,7508,71,0.12,2,2,0,2,4523,11584,2374,7102,71,71,0,71,0.00,0.65,0.18,0.10
2016-10-04 12:10:00,2,8367,75,0.05,2,2,0,2,5372,9991,1382,8996,71,77,3,77,0.00,0.15,0.05,0.05
2016-10-04 12:20:00,2,5427,72,0.43,2,2,0,2,3293,8729,1789,5262,71,77,2,71,0.00,1.25,0.43,0.33
2016-10-04 12:30:00,2,7624,73,0.08,2,2,0,2,3906,11118,2375,7973,71,77,3,71,0.00,0.25,0.09,0.08
2016-10-04 12:40:00,2,5101,73,0.38,2,2,0,2,3085,7440,1413,4905,71,77,3,71,0.05,1.35,0.40,0.22
2016-10-04 12:50:00,2,16112,51,0.00,2,2,0,2,8892,20188,3617,16747,0,77,33,71,0.00,0.00,0.00,0.00
2016-10-04 13:00:00,2,18071,0,0.00,2,2,0,2,13551,20072,2079,18984,0,0,0,0,0.00,0.00,0.00,0.00
2016-10-04 13:10:00,2,20353,0,0.00,2,2,0,2,18286,22695,1430,19858,0,0,0,0,0.00,0.00,0.00,0.00
2016-10-04 13:20:00,2,20667,0,0.00,2,2,0,2,13533,30796,5571,21446,0,0,0,0,0.00,0.00,0.00,0.00
2016-10-04 13:30:00,2,12856,29,0.03,2,2,0,2,6166,18934,4200,12742,0,41,19,41,0.00,0.10,0.03,0.03
2016-10-04 13:40:00,2,8947,66,0.08,2,2,0,2,5237,12129,2423,9301,41,77,12,71,0.00,0.20,0.06,0.05
2016-10-04 13:50:00,2,9897,73,0.15,2,2,0,2,3714,14853,3544,10027,71,77,3,71,0.00,0.50,0.17,0.10
2016-10-04 14:00:00,2,11076,59,0.07,2,2,0,2,5266,18144,3692,10373,41,71,15,71,0.00,0.20,0.08,0.03
2016-10-04 14:10:00,2,14389,69,0.03,2,2,0,2,7875,18654,3522,14527,0,77,23,77,0.00,0.10,0.04,0.00
2016-10-04 14:20:00,2,12885,43,0.03,2,2,0,2,5883,20460,4883,12228,0,71,35,71,0.00,0.30,0.09,0.00
2016-10-04 14:30:00,2,11657,59,0.05,2,2,0,2,5578,18361,4352,11752,0,77,30,71,0.00,0.20,0.06,0.03
2016-10-04 14:40:00,2,10098,74,0.05,2,2,0,2,6079,15084,2647,10336,71,77,3,74,0.00,0.15,0.05,0.03
2016-10-04 14:50:00,2,17521,53,0.02,2,2,0,2,14008,19988,1902,17993,0,77,35,74,0.00,0.05,0.02,0.00
2016-10-04 15:00:00,2,18461,0,0.00,2,2,0,2,11639,22558,3150,19269,0,0,0,0,0.00,0.00,0.00,0.00
2016-10-04 15:10:00,2,12620,44,0.04,2,2,0,2,8414,15895,2581,13044,0,77,20,41,0.00,0.10,0.04,0.05
2016-10-04 15:20:00,2,22503,23,0.00,2,2,0,2,16938,27122,2948,23397,0,77,35,0,0.00,0.00,0.00,0.00
2016-10-04 15:30:00,2,23668,0,0.00,2,2,0,2,21452,26000,1469,23230,0,0,0,0,0.00,0.00,0.00,0.00
2016-10-04 15:40:00,2,14827,51,0.01,2,2,0,2,10922,21551,3571,14354,0,77,33,71,0.00,0.10,0.03,0.00
2016-10-04 15:50:00,2,20104,46,0.01,2,2,0,2,16314,25634,2596,19459,0,77,37,74,0.00,0.05,0.02,0.00
2016-10-04 16:00:00,2,26297,0,0.00,2,2,0,2,23363,30296,2290,26674,0,0,0,0,0.00,0.00,0.00,0.00
2016-10-04 16:10:00,2,27264,0,0.00,2,2,0,2,23784,32053,2713,26704,0,0,0,0,0.00,0.00,0.00,0.00
2016-10-04 16:20:00,2,28141,0,0.00,2,2,0,2,23394,30467,2573,29492,0,0,0,0,0.00,0.00,0.00,0.00
2016-10-04 16:30:00,2,19625,0,0.00,2,2,0,2,12236,24257,4532,21904,0,0,0,0,0.00,0.00,0.00,0.00
2016-10-04 16:40:00,2,10802,0,0.00,2,2,0,2,8232,13620,2024,10602,0,0,0,0,0.00,0.00,0.00,0.00
2016-10-04 16:50:00,2,9257,0,0.00,2,2,0,2,6057,11986,1565,9369,0,0,0,0,0.00,0.00,0.00,0.00
2016-10-04 17:00:00,2,11162,57,0.02,2,2,0,2,5675,16400,3750,11139,10,77,22,71,0.00,0.10,0.03,0.00
2016-10-04 17:10:00,2,12595,75,0.00,2,2,0,2,10519,15473,1629,12399,71,77,3,77,0.00,0.00,0.00,0.00
2016-10-04 17:20:00,2,13927,14,0.00,2,2,0,2,10433,17054,1888,14064,0,71,28,0,0.00,0.00,0.00,0.00
2016-10-04 17:30:00,2,16337,0,0.00,2,2,0,2,12802,18572,1958,16911,0,0,0,0,0.00,0.00,0.00,0.00
2016-10-04 17:40:00,2,19894,0,0.00,2,2,0,2,16452,24541,2282,19438,0,0,0,0,0.00,0.00,0.00,0.00
2016-10-04 17:50:00,2,11560,0,0.00,2,2,0,2,8312,18099,3161,10656,0,0,0,0,0.00,0.00,0.00,0.00
2016-10-04 18:00:00,2,24100,0,0.00,2,2,0,2,15112,37886,7431,22796,0,0,0,0,0.00,0.00,0.00,0.00
2016-10-04 18:10:00,2,35646,0,0.00,2,2,0,2,26868,44138,5686,36518,0,0,0,0,0.00,0.00,0.00,0.00
2016-10-04 18:20:00,2,33009,0,0.00,2,2,0,2,21941,42143,7385,35212,0,0,0,0,0.00,0.00,0.00,0.00
2016-10-04 18:30:00,2,41070,0,0.00,2,2,0,2,34354,47563,4168,41170,0,0,0,0,0.00,0.00,0.00,0.00
2016-10-04 18:40:00,2,45861,0,0.00,2,2,0,2,41179,50000,2709,45982,0,0,0,0,0.00,0.00,0.00,0.00
2016-10-04 18:50:00,2,45569,0,0.00,2,2,0,2,36463,50000,4874,46360,0,0,0,0,0.00,0.00,0.00,0.00
2016-10-04 19:00:00,2,39731,0,0.00,2,2,0,2,35666,44491,2739,38836,0,0,0,0,0.00,0.00,0.00,0.00
2016-10-04 19:10:00,2,23123,22,0.00,2,2,0,2,11799,44332,11395,18658,0,71,29,0,0.00,0.00,0.00,0.00
2016-10-04 19:20:00,2,44788,38,0.00,2,2,0,2,28550,50000,6284,47069,0,77,38,36,0.00,0.00,0.00,0.00
2016-10-04 19:30:00,2,43508,0,0.00,2,2,0,2,34455,49553,4978,44554,0,0,0,0,0.00,0.00,0.00,0.00
2016-10-04 19:40:00,2,49792,0,0.00,2,2,0,2,48193,50000,536,50000,0,0,0,0,0.00,0.00,0.00,0.00
2016-10-04 19:50:00,2,48794,0,0.00,2,2,0,2,42418,50000,2355,50000,0,0,0,0,0.00,0.00,0.00,0.00
2016-10-04 20:00:00,2,45598,0,0.00,2,2,0,2,39498,50000,3946,45988,0,0,0,0,0.00,0.00,0.00,0.00
2016-10-04 20:10:00,2,47717,0,0.00,2,2,0,2,42447,50000,2505,48190,0,0,0,0,0.00,0.00,0.00,0.00
2016-10-04 20:20:00,2,47056,0,0.00,2,2,0,2,36751,50000,4447,49154,0,0,0,0,0.00,0.00,0.00,0.00
2016-10-04 20:30:00,2,35863,0,0.00,2,2,0,2,26748,45866,7054,33842,0,0,0,0,0.00,0.00,0.00,0.00
2016-10-04 20:40:00,2,32663,0,0.00,2,2,0,2,21751,45237,8237,31930,0,0,0,0,0.00,0.00,0.00,0.00
2016-10-04 20:50:00,2,26190,0,0.00,2,2,0,2,16248,37486,6476,25424,0,0,0,0,0.00,0.00,0.00,0.00
2016-10-04 21:00:00,2,17980,0,0.00,2,2,0,2,10138,40228,10328,12628,0,0,0,0,0.00,0.00,0.00,0.00
2016-10-04 21:10:00,2,10356,0,0.00,2,2,0,2,6143,12564,2094,11136,0,0,0,0,0.00,0.00,0.00,0.00
2016-10-04 21:20:00,2,10294,0,0.00,2,2,0,2,8967,12446,951,10143,0,0,0,0,0.00,0.00,0.00,0.00
2016-10-04 21:30:00,2,7509,62,0.03,2,2,0,2,6174,9559,1011,7241,40,77,18,77,0.00,0.05,0.03,0.03
2016-10-04 21:40:00,2,9538,76,0.02,2,2,0,2,7689,11106,1002,9670,71,77,2,77,0.00,0.05,0.02,0.00
2016-10-04 21:50:00,2,5440,74,0.24,2,2,0,2,3681,7535,1197,5172,71,77,3,74,0.00,0.60,0.18,0.20
2016-10-04 22:00:00,2,6788,75,0.10,2,2,0,2,5265,8383,924,6818,71,77,3,77,0.05,0.20,0.04,0.10
2016-10-04 22:10:00,2,4648,76,0.17,2,2,0,2,3243,6240,784,4719,71,77,2,77,0.05,0.40,0.10,0.15
2016-10-04 22:20:00,2,6643,76,0.09,2,2,0,2,4578,9080,1322,6350,71,77,2,77,0.05,0.15,0.03,0.10
2016-10-04 22:30:00,2,18206,76,0.02,2,2,0,2,8457,31713,7967,15628,71,77,2,77,0.00,0.05,0.02,0.00
2016-10-04 22:40:00,2,30392,0,0.00,2,2,0,2,19425,45353,8101,26410,0,0,0,0,0.00,0.00,0.00,0.00
2016-10-04 22:50:00,2,18544,0,0.00,2,2,0,2,13443,26648,4371,16759,0,0,0,0,0.00,0.00,0.00,0.00
2016-10-04 23:00:00,2,25510,0,0.00,2,2,0,2,13278,41810,9721,21629,0,0,0,0,0.00,0.00,0.00,0.00
2016-10-04 23:10:00,2,19568,12,0.07,2,2,0,2,7514,29113,7157,21638,0,41,19,0,0.00,0.30,0.12,0.00
2016-10-04 23:20:00,2,4449,57,0.55,2,2,0,2,2508,7825,1639,4086,41,71,13,54,0.20,1.05,0.24,0.60
2016-10-04 23:30:00,2,10509,40,0.06,2,2,0,2,2711,16366,4197,12157,10,71,30,40,0.00,0.40,0.12,0.00
2016-10-04 23:40:00,2,28072,3,0.00,2,2,0,2,14700,41213,10989,25080,0,10,5,0,0.00,0.00,0.00,0.00
2016-10-04 23:50:00,2,44953,0,0.00,2,2,0,2,34080,50000,4967,46620,0,0,0,0,0.00,0.00,0.00,0.00
